TimeEDT,TemperatureF,Dew PointF,Humidity,Sea Level PressureIn,VisibilityMPH,Wind Direction,Wind SpeedMPH,Gust SpeedMPH,PrecipitationIn,Events,Conditions,WindDirDegrees,DateUTC
12:56 AM,63.0,55.9,78,29.96,10.0,NNE,6.9,-,N/A,,Clear,30,2013-09-27 04:56:00
1:56 AM,64.0,57.0,78,29.96,10.0,NNE,5.8,-,N/A,,Scattered Clouds,20,2013-09-27 05:56:00
2:56 AM,63.0,57.0,81,29.96,10.0,NE,8.1,-,N/A,,Partly Cloudy,40,2013-09-27 06:56:00
3:56 AM,63.0,57.0,81,29.95,10.0,NNE,8.1,-,N/A,,Clear,30,2013-09-27 07:56:00
4:56 AM,62.1,57.0,84,29.96,10.0,NNE,8.1,-,N/A,,Clear,20,2013-09-27 08:56:00
5:56 AM,62.1,57.0,84,29.98,10.0,NNE,9.2,-,N/A,,Clear,20,2013-09-27 09:56:00
6:56 AM,62.1,57.0,84,30.00,10.0,NNE,12.7,-,N/A,,Clear,30,2013-09-27 10:56:00
7:56 AM,63.0,57.9,84,30.01,10.0,NNE,9.2,-,N/A,,Clear,30,2013-09-27 11:56:00
8:56 AM,66.0,57.9,75,30.04,10.0,NNE,11.5,19.6,N/A,,Clear,20,2013-09-27 12:56:00
9:56 AM,70.0,59.0,68,30.05,10.0,NNE,11.5,-,N/A,,Partly Cloudy,20,2013-09-27 13:56:00
10:56 AM,73.0,60.1,64,30.06,10.0,NNE,13.8,-,N/A,,Partly Cloudy,30,2013-09-27 14:56:00
11:56 AM,75.9,61.0,60,30.06,10.0,NNE,16.1,-,N/A,,Scattered Clouds,20,2013-09-27 15:56:00
12:56 PM,78.1,62.1,58,30.06,10.0,NNE,12.7,-,N/A,,Scattered Clouds,30,2013-09-27 16:56:00
1:56 PM,80.1,62.1,54,30.04,10.0,NNE,10.4,-,N/A,,Scattered Clouds,30,2013-09-27 17:56:00
2:56 PM,78.1,60.1,54,30.03,10.0,NE,9.2,-,N/A,,Mostly Cloudy,40,2013-09-27 18:56:00
3:56 PM,79.0,60.1,52,30.02,10.0,NNE,10.4,19.6,N/A,,Mostly Cloudy,20,2013-09-27 19:56:00
4:56 PM,79.0,60.1,52,30.02,10.0,NNE,6.9,-,N/A,,Mostly Cloudy,20,2013-09-27 20:56:00
5:56 PM,75.9,60.1,58,30.03,10.0,NNE,6.9,-,N/A,,Scattered Clouds,30,2013-09-27 21:56:00
6:56 PM,75.0,59.0,57,30.04,10.0,NNE,6.9,-,N/A,,Partly Cloudy,30,2013-09-27 22:56:00
7:56 PM,71.1,60.1,68,30.06,10.0,NE,6.9,-,N/A,,Partly Cloudy,40,2013-09-27 23:56:00
8:56 PM,69.1,60.1,73,30.08,10.0,NE,5.8,-,N/A,,Scattered Clouds,40,2013-09-28 00:56:00
9:56 PM,68.0,57.9,70,30.10,10.0,NE,8.1,-,N/A,,Partly Cloudy,40,2013-09-28 01:56:00
10:56 PM,66.0,57.0,73,30.11,10.0,NNE,6.9,-,N/A,,Partly Cloudy,30,2013-09-28 02:56:00
11:56 PM,64.9,55.9,73,30.12,10.0,NE,6.9,-,N/A,,Clear,40,2013-09-28 03:56:00